Weather History for Kansas City, MO

Change the Weather History Date:

Sunday, March 10, 2013

  Actual Average Record
Temperature  
Mean Temperature 40 °F -  
Max Temperature 53 °F 48 °F 75 °F (2014)
Min Temperature 28 °F 29 °F 8 °F (1998)
Degree Days  
Heating Degree Days 24    
Moisture  
Dew Point 40 °F    
Average Humidity 89    
Maximum Humidity 100    
Minimum Humidity 75    
Precipitation  
Precipitation 0.00 in - - ()
Sea Level Pressure  
Sea Level Pressure 29.69 in    
Wind  
Wind Speed 6 mph (NW)    
Max Wind Speed 16 mph    
Max Gust Speed 26 mph    
Visibility 6 miles    
Events Fog    
Averages and records for this station are not official NWS values.
T = Trace of Precipitation, MM = Missing Value Source: NWS Daily Summary

Daily Weather History Graph

Daily Weather History Graph

Search for Another Location

Airport:

Trip Planner

Search our weather history database for the weather conditions in past years. The results will help you decide how hot, cold, wet, or windy it might be!

Date:

Astronomy

Mar. 10, 2013 Rise Set
Actual Time 7:37 AM CDT 7:20 PM CDT
Civil Twilight 7:10 AM CDT 7:47 PM CDT
Nautical Twilight 6:39 AM CDT 8:18 PM CDT
Astronomical Twilight 6:08 AM CDT 8:49 PM CDT
Moon 6:37 AM CDT (3/10) 6:29 PM CDT (3/10)
Length of Visible Light 12h 36m
Length of Day
11h 43m
Waning Crescent, 2% of the Moon is Illuminated
Mar 10
Waning Crescent
Mar 11
New
Mar 19
First Quarter
Mar 27
Full
Apr 2
Last Quarter

Hourly Weather History & Observations

Time (CDT) Temp. Windchill Dew Point Humidity Pressure Visibility Wind Dir Wind Speed Gust Speed Precip Events Conditions
12:02 AM 50.0 °F - 48.2 °F 94% 29.59 in 0.8 mi East 5.8 mph - N/A   Mist
12:06 AM 51.8 °F - 48.2 °F 88% 29.59 in 1.2 mi Calm Calm - N/A   Clear
12:12 AM 50.0 °F - 48.2 °F 94% 29.61 in 1.0 mi West 3.5 mph - N/A   Mist
12:15 AM 48.2 °F - 46.4 °F 93% 29.61 in 0.5 mi WNW 4.6 mph - N/A Fog Fog
12:49 AM 46.4 °F 45.2 °F 46.4 °F 100% 29.60 in 0.2 mi NE 3.5 mph - N/A Fog Fog
12:54 AM 46.9 °F - 46.0 °F 97% 29.60 in 0.2 mi Calm Calm - N/A Fog Fog
1:54 AM 50.0 °F - 48.0 °F 93% 29.60 in 0.5 mi ESE 3.5 mph - N/A Fog Fog
3:37 AM 50.0 °F - 48.2 °F 94% 29.59 in 0.8 mi Calm Calm - N/A   Mostly Cloudy
3:45 AM 50.0 °F - 48.2 °F 94% 29.60 in 2.0 mi South 4.6 mph - N/A   Mostly Cloudy
3:54 AM 52.0 °F - 51.1 °F 97% 29.60 in 9.0 mi South 6.9 mph - N/A   Mostly Cloudy
4:50 AM 53.6 °F - 51.8 °F 94% 29.55 in 10.0 mi South 5.8 mph - N/A   Scattered Clouds
4:54 AM 52.0 °F - 50.0 °F 93% 29.56 in 10.0 mi South 6.9 mph - N/A   Scattered Clouds
5:54 AM 53.1 °F - 51.1 °F 93% 29.61 in 10.0 mi WSW 4.6 mph - N/A   Mostly Cloudy
6:04 AM 53.6 °F - 50.0 °F 88% 29.62 in 10.0 mi WSW 4.6 mph - N/A   Mostly Cloudy
6:49 AM 51.8 °F - 50.0 °F 94% 29.60 in 8.0 mi Calm Calm - N/A   Overcast
6:54 AM 51.8 °F - 48.2 °F 88% 29.60 in 7.0 mi Calm Calm - N/A   Overcast
7:19 AM 51.8 °F - 48.2 °F 88% 29.64 in 7.0 mi SW 6.9 mph - N/A   Overcast
7:29 AM 53.6 °F - 50.0 °F 88% 29.65 in 10.0 mi SSW 6.9 mph - N/A   Overcast
7:54 AM 53.1 °F - 48.9 °F 86% 29.62 in 10.0 mi North 5.8 mph - N/A   Mostly Cloudy
8:17 AM 46.4 °F 42.4 °F 44.6 °F 93% 29.63 in 4.0 mi NW 8.1 mph - N/A   Mostly Cloudy
8:23 AM 46.4 °F 42.9 °F 44.6 °F 93% 29.63 in 2.5 mi NW 6.9 mph - N/A   Overcast
8:54 AM 44.1 °F 38.6 °F 42.1 °F 93% 29.63 in 1.5 mi NW 10.4 mph - N/A   Overcast
9:01 AM 44.6 °F 40.7 °F 42.8 °F 93% 29.63 in 1.2 mi NNW 6.9 mph - N/A   Overcast
9:19 AM 44.6 °F 40.7 °F 42.8 °F 93% 29.66 in 2.0 mi NW 6.9 mph - N/A   Overcast
9:40 AM 44.6 °F 42.2 °F 42.8 °F 93% 29.68 in 3.0 mi NNW 4.6 mph - N/A   Overcast
9:54 AM 44.1 °F 40.8 °F 42.1 °F 93% 29.67 in 3.0 mi NNW 5.8 mph - N/A   Overcast
10:04 AM 44.6 °F 40.2 °F 42.8 °F 93% 29.66 in 3.0 mi NNW 8.1 mph - N/A   Overcast
10:54 AM 41.0 °F 36.4 °F 39.0 °F 93% 29.68 in 6.0 mi NNW 6.9 mph - N/A   Overcast
11:54 AM 39.9 °F 35.1 °F 37.0 °F 89% 29.69 in 10.0 mi North 6.9 mph - 0.00 in   Overcast
12:23 PM 39.2 °F 33.6 °F 37.4 °F 93% 29.68 in 10.0 mi NNW 8.1 mph - N/A   Overcast
12:54 PM 39.9 °F 33.9 °F 37.0 °F 89% 29.68 in 7.0 mi NNW 9.2 mph - N/A   Overcast
1:54 PM 39.0 °F 32.8 °F 36.0 °F 89% 29.68 in 10.0 mi NNW 9.2 mph - N/A   Overcast
2:54 PM 39.0 °F 30.6 °F 35.1 °F 86% 29.69 in 10.0 mi NW 15.0 mph 21.9 mph N/A   Overcast
3:09 PM 39.2 °F 31.6 °F 35.6 °F 87% 29.69 in 10.0 mi NW 12.7 mph 18.4 mph N/A   Overcast
3:52 PM 35.6 °F 27.5 °F 33.8 °F 93% 29.71 in 3.0 mi WNW 11.5 mph 19.6 mph N/A   Overcast
3:54 PM 36.0 °F 27.1 °F 33.1 °F 89% 29.72 in 3.0 mi WNW 13.8 mph 19.6 mph N/A   Overcast
4:54 PM 34.0 °F 25.0 °F 30.9 °F 89% 29.76 in 3.0 mi WNW 12.7 mph 19.6 mph N/A   Overcast
5:40 PM 33.8 °F 23.5 °F 28.4 °F 81% 29.77 in 3.0 mi NW 16.1 mph 23.0 mph N/A   Overcast
5:54 PM 33.1 °F 23.0 °F 28.9 °F 85% 29.79 in 3.0 mi NW 15.0 mph 24.2 mph N/A   Overcast
6:54 PM 32.0 °F 21.6 °F 28.0 °F 85% 29.82 in 10.0 mi NW 15.0 mph 20.7 mph N/A   Overcast
7:19 PM 32.0 °F 22.1 °F 26.6 °F 80% 29.82 in 10.0 mi NW 13.8 mph 23.0 mph N/A   Overcast
7:54 PM 32.0 °F 22.1 °F 26.1 °F 79% 29.83 in 10.0 mi NW 13.8 mph 26.5 mph N/A   Overcast
8:54 PM 32.0 °F 22.5 °F 26.6 °F 80% 29.85 in 10.0 mi NW 12.7 mph 20.7 mph N/A   Overcast
9:54 PM 30.9 °F 20.7 °F 25.0 °F 79% 29.88 in 10.0 mi WNW 13.8 mph 20.7 mph N/A   Overcast
10:54 PM 30.0 °F 19.5 °F 24.1 °F 79% 29.90 in 10.0 mi WNW 13.8 mph 19.6 mph N/A   Overcast
11:05 PM 28.4 °F 18.5 °F 24.8 °F 86% 29.88 in 10.0 mi NW 11.5 mph 21.9 mph N/A   Overcast
11:54 PM 28.4 °F 18.0 °F 23.0 °F 80% 29.88 in 10.0 mi NW 12.7 mph 19.6 mph N/A   Overcast
12:54 AM 28.9 °F 18.6 °F 21.9 °F 75% 29.91 in 10.0 mi WNW 12.7 mph 23.0 mph N/A   Overcast